星链-34018 (STARLINK-34018)

导读

STARLINK-34018是美国太空探索技术公司(SpaceX)星链(Starlink)卫星星座的一员,于2025年5月7日发射入轨。星链项目旨在构建全球卫星互联网星座,为全球范围提供宽带互联网接入服务,该卫星进一步扩充了星链星座规模,助力星座覆盖能力与服务能力提升。

基本信息
目录编号:
63836
目录名称:
STARLINK-34018
国际标识:
2025-093A
轨道中心:
EARTH
卫星名称:
星链-34018
卫星全名:
星链-34018 (STARLINK-34018)
卫星状态:
在轨 (已飞行403 天)
发射日期:
2025-05-07 UTC
国别 :
美国 (US)
星等 :
--
轨道信息
数据来源 国际轨道数据 AOE轨道数据
星历时间 2026-06-13T07:26:43+0800
1天前
查看轨道信息
2026-06-10T07:00:00+0800
4天前
查看轨道信息
半长轴 6861.063km 6861.197km
偏心率 0.0003887 0.0001414
轨道倾角 43.002° 43.006°
近地点辐角 267.031° 261.650°
升交点赤经 259.910° 276.956°
平近点角 93.010° 38.983°
近地点 480.259km 482.089km
远地点 485.593km 484.031km
周期 94.264分钟 94.267分钟
每日圈数 15.276213 15.275764
详细信息
固有亮度:
5
最大亮度:
2.5
卫星平台:
Starlink V1.0
覆盖范围:
全球
运营商:
太空探索技术公司
运营商所在国:
美国
制造商(研发单位):
太空探索技术公司
制造商所在国:
美国
使用方式:
暂无
卫星简介
Starlink 计划是 SpaceX 推出的全球卫星互联网项目,通过发射低轨道卫星,为全球尤其是偏远地区提供高速、低延迟的互联网服务。自 2019 年起,Starlink 已部署数千颗卫星,旨在缩小全球数字鸿沟,推动互联网普及。该项目还为军事、航空等行业提供通信支持,带来广泛经济效益。
2D轨道图
3D轨道图
轨道高度分析图
轨道倾角分析图
轨道综合分析图
查看轨道综合分析图